Location: La Pernelle
(49.6188°N, 1.2999°W)
Time: 14:27:47
(UTC+00:00)

Lacrosse 5 - Pass Details

Date: 12 June 2021
Orbit: 715 x 724 km, 57.0° (Epoch: 28 July)

Event Time Altitude Azimuth Distance (km) Brightness Sun altitude
Rises 22:53:47 0° 299° (WNW) 3,128 5.9 -15.5°
Reaches altitude 10° 22:56:29 10° 287° (WNW) 2,205 4.8 -15.6°
Maximum altitude 23:00:37 26° 233° (SW) 1,411 3.2 -15.8°
Enters shadow 23:02:30 20° 200° (SSW) 1,609 3.2 -15.8°
